Find DS-EO

NORAD ID: 52935 Int'l Des: 2022-072 Owner: DSTA/STELEC Country: SG operational
LEOCIRCULAR

現在のビュー

3D地球を読み込み中...

About DS-EO

DS-EO (NORAD 52935) is a satellite launched Jun 30, 2022 by DSTA/STELEC of SG. It operates in LEO, CIRCULAR orbit with a mass of 365.00 kg.

次回通過

Passes for default location (London). Set your location on the main map for personalized predictions.

高度履歴

Loading altitude history...

軌道要素

1 52935U 22072A 26195.21585029 .00003271 00000-0 13074-3 0 9993
2 52935 9.9956 341.5267 0004172 344.5874 15.4214 15.14051947222618
Epoch: Jul 14, 2026 • Age: 10 hours

現在のステータス

高度 521.0 km
遠地点 / 近地点 N/A
速度 7.61 km/s
衛星直下点 9.93°N, 81.54°W
打ち上げ日 Jun 30, 2022
運用期間 4 years
タイプ other

技術仕様

分類 Payload
質量 365.00 kg
乾燥質量 350.00 kg
総質量 365.00 kg
長さ 2.00 m
直径 2.00 m
スパン 2.00 m
形状 Box+pan
製造者 SATRHW/STELEC
バスタイプ DS-EO
フェーズステータス In Orbit
所有者/国 DSTA/STELEC/SG

Most Searched